Location: Cranbrook Institute of Science
(42.5830°N, 83.2450°W)
Time: 05:20:45
(UTC-05:00)

Daily predictions for brighter satellites

Satellite Brightness Start Highest point End
(mag) Time Altitude Azimuth Time Altitude Azimuth Time Altitude Azimuth
Cosmos 2369 Rocket 4.0 03:43:44 27° ENE 03:43:44 27° ENE 03:46:37 10° NE
ATLAS 5 CENTAUR R/B 3.1 04:22:37 39° ENE 04:22:37 39° ENE 04:26:10 10° NE
Cosmos 1943 Rocket 2.8 04:28:16 48° ESE 04:28:37 49° ESE 04:33:56 10° NE
CZ-4B R/B 3.5 04:25:01 10° NNE 04:30:05 68° ENE 04:30:05 68° ENE
Cosmos 1624 Rocket 4.5 04:33:05 58° NE 04:33:05 58° NE 04:37:30 10° NNE
Cosmos 2056 Rocket 4.0 04:34:28 56° ENE 04:34:28 56° ENE 04:38:46 10° NNE
Okean-O 4.5 04:29:53 10° NE 04:33:45 29° E 04:35:45 20° SE
CZ-4C R/B 4.1 04:33:26 15° SSE 04:36:24 25° ESE 04:40:57 10° ENE
PAYLOAD B 4.4 04:56:36 10° N 05:01:26 54° NW 05:01:26 54° NW
Thor Agena Rocket 3.9 04:59:19 10° SSE 05:04:28 64° ENE 05:09:35 10° N
Cosmos 1703 Rocket 4.0 05:04:08 25° SSE 05:06:32 59° E 05:10:51 10° NNE
ADEOS II 2.2 05:02:30 10° N 05:07:16 56° NW 05:07:16 56° NW
USA 234 3.1 05:01:18 10° NE 05:07:52 85° NW 05:10:14 43° SW
Cosmos 972 4.4 05:07:46 36° S 05:09:46 78° ESE 05:14:57 10° NNE
Lacrosse 5 1.7 05:10:00 69° SW 05:10:39 88° NW 05:15:46 10° NE
CZ-4B DEB 4.4 05:08:38 10° N 05:13:58 50° WNW 05:13:59 50° WNW
Meteor 1-31 Rocket 2.8 05:10:30 10° NNE 05:14:25 75° ESE 05:14:57 62° SSE
Cosmos 1452 Rocket 3.8 05:10:36 15° S 05:14:58 65° ESE 05:20:14 10° NNE
Okean O Rocket 3.7 05:12:08 10° N 05:13:00 15° NNW 05:13:00 15° NNW
Cosmos 2219 4.1 05:14:34 10° NNW 05:20:06 49° ENE 05:25:33 10° SE
Cosmos 2369 Rocket 3.0 05:25:33 32° NW 05:25:33 32° NW 05:30:29 10° N
Feng Yun 1-1 Rocket 4.3 05:24:22 10° NNE 05:30:16 83° WNW 05:36:11 10° SSW
Cosmos 407 Rocket 3.7 05:28:00 22° NW 05:31:16 49° WSW 05:36:22 10° S
ATLAS 3B R/B 4.5 05:25:17 10° S 05:31:56 34° ESE 05:38:24 10° NE
COSMO-SKYMED 1 3.1 05:28:24 10° SSE 05:32:40 59° ENE 05:36:57 10° N
Cosmos 2221 Rocket 3.5 05:29:55 10° S 05:34:28 87° W 05:39:04 10° N
Cosmos 676 Rocket 3.9 05:29:47 10° NNW 05:35:03 66° WSW 05:40:19 10° S
Cosmos 1656 Rocket 3.8 05:29:28 10° SSW 05:35:09 80° ESE 05:40:52 10° NNE
CZ-4B R/B 3.9 05:36:52 10° N 05:40:45 56° WNW 05:42:48 26° SW
NOSS 3 (A) 4.5 05:44:39 60° NW 05:44:40 60° NW 05:47:53 10° NNE
Cosmos 1833 4.4 05:41:47 11° NW 05:46:45 44° WSW 05:52:00 10° S
Abrixas 3.7 05:50:43 27° NNW 05:51:01 27° N 05:53:34 10° NE
Cosmos 1140 Rocket 3.4 05:47:05 10° NNW 05:52:19 75° WSW 05:57:33 10° SSE
Okean 1-7 3.0 05:55:24 10° SSW 05:59:35 53° W 06:03:46 10° N
ERS-2 4.2 05:57:17 10° NNW 05:58:08 13° NW 05:58:08 13° NW
Lacrosse 5 rocket 3.2 05:57:24 10° NNW 06:00:13 21° NNE 06:03:01 10° E
Cosmos 614 Rocket 3.8 05:56:14 10° NNW 06:01:20 82° WSW 06:06:28 10° SSE
Cosmos 1745 Rocket 3.9 05:55:20 10° N 06:01:30 79° W 06:07:37 10° S
SKYMED 3 4.5 05:58:23 10° S 06:02:41 65° WSW 06:07:01 10° NNW
Radarsat Rocket 4.3 05:56:34 10° NNE 06:03:58 83° WNW 06:10:26 10° SSW
ATLAS 5 CENTAUR R/B 3.0 06:04:11 20° WNW 06:06:13 26° NW 06:10:39 10° NNE
Cosmos 1386 Rocket 4.4 06:02:10 10° N 06:08:15 89° E 06:14:22 10° S
Meteor 2-10 Rocket 3.9 06:04:13 10° SW 06:08:48 36° WNW 06:13:28 10° N
Tiangong 1 1.0 06:07:42 26° WSW 06:09:09 68° SSE 06:12:05 10° E
Cosmos 1782 Rocket 4.2 06:05:23 10° NNW 06:09:26 34° W 06:13:26 10° SSW
Okean-O 3.5 06:06:24 10° N 06:10:10 28° WNW 06:13:21 13° WSW
CZ-2C R/B 4.3 06:05:49 10° NNE 06:10:17 35° E 06:14:52 10° SSE
Cosmos 1633 4.0 06:08:04 10° N 06:11:32 41° ENE 06:14:58 10° SSE
Cosmos 1943 Rocket 3.2 06:09:50 18° W 06:12:36 26° NW 06:17:15 10° N
Meteor 1-20 Rocket 4.2 06:08:28 10° NNW 06:14:08 64° W 06:19:40 10° S
Meteor 1-28 Rocket 3.1 06:11:18 10° S 06:14:59 61° W 06:18:42 10° NNW
Cosmos 1850 Rocket 4.0 06:11:55 10° NNW 06:17:15 72° WSW 06:22:31 10° S
SKYMED 2 4.0 06:16:42 10° SSW 06:20:47 40° W 06:24:54 10° NNW
Cosmos 1782 2.8 06:17:10 10° SSW 06:21:05 58° W 06:25:01 10° N
IDEFIX/ARIANE 42P 3.7 06:19:06 10° NNE 06:24:11 49° E 06:29:12 10° S
CZ-4C R/B 2.4 06:19:12 10° SW 06:24:24 53° NW 06:30:20 10° NNE
Ariane Rocket 3.0 06:23:53 10° NNE 06:29:00 81° WNW 06:34:04 10° SSW
CSL-04 Rocket 3.7 06:24:30 10° NNE 06:29:55 87° ESE 06:35:22 10° SSW
Okean 2 Rocket 4.0 06:28:30 10° NNW 06:32:10 26° W 06:35:49 10° SW
Cosmos 1602 4.0 06:28:36 10° N 06:32:34 75° E 06:36:31 10° SSE
Cosmos 1420 Rocket 4.3 06:27:46 10° SW 06:32:41 43° WNW 06:37:37 10° N
Cosmos 1674 Rocket 3.6 06:32:13 10° S 06:36:37 90° SSW 06:41:05 10° N
Cosmos 1606 2.9 06:33:57 10° SSW 06:37:41 47° WNW 06:41:28 10° N
Meteor 2-6 Rocket 4.2 06:39:31 10° SSW 06:44:48 57° WNW 06:50:09 10° N
USA 234 4.1 06:44:36 10° NE 06:50:23 35° NNW 06:56:10 10° W
Cosmos 2297 Rocket 2.7 06:45:43 10° NNW 06:51:21 65° ENE 06:56:57 10° SE
Cosmos 2151 Rocket 4.2 06:47:16 10° NNW 06:51:24 35° W 06:55:28 10° SSW
USA 238 DEB 4.2 06:47:15 10° SSW 06:54:10 69° ESE 07:01:10 10° NE
USA 238 4.2 06:47:20 10° SSW 06:54:16 69° ESE 07:01:15 10° NE
